Wind_Speed
32 33 34 34 33 34 34 33 33 32 32 31 31 31 30 29 29 29 29 30 30 30 30 31 31 31 32 32 33 34 34 35 35 35 36 36 36 36 36 36 36 36 36 36 36 36 36 36 36 37 37 37 37 38 39 38 38 38 38 38 38 38 38 38 38 38 37 37 36 36 35 35 34 33 32 31 30 29 28 28 28 28 28 28 28
33 34 35 35 35 35 36 36 35 35 35 34 33 34 33 31 31 31 30 30 30 31 31 31 31 32 32 32 32 33 33 34 34 35 35 36 36 36 36 37 37 37 36 36 37 37 37 38 38 38 38 38 39 40 41 40 40 40 40 40 40 40 40 40 40 39 39 39 39 38 37 36 36 35 34 33 32 31 31 31 31 30 30 30 30
34 34 35 35 36 36 37 38 37 37 38 37 36 36 35 34 34 33 32 32 32 32 32 32 32 32 32 32 32 32 33 33 33 34 34 35 35 36 36 36 37 37 37 37 37 37 38 38 39 39 39 39 39 40 41 40 40 41 41 41 41 41 41 41 41 40 40 41 41 40 39 38 37 37 36 35 34 34 33 33 33 33 33 33 33
34 34 34 35 36 36 37 38 38 38 39 39 38 39 38 36 36 36 35 34 33 33 33 33 33 33 33 33 33 33 33 33 33 33 33 34 35 35 36 36 37 37 37 38 38 38 39 39 39 39 39 40 40 40 41 41 40 41 41 41 41 41 42 41 41 41 41 41 41 41 41 40 39 39 38 37 37 36 36 35 35 35 35 35 35
34 33 34 35 35 36 36 38 38 39 39 39 39 40 39 38 39 38 37 36 36 35 34 34 34 34 34 33 33 33 33 33 33 33 33 34 35 35 36 36 37 37 38 39 39 40 40 40 40 39 39 39 39 39 40 40 40 40 41 41 41 41 41 41 41 41 41 41 41 41 41 41 41 41 40 40 39 38 38 37 37 37 37 37 37
34 33 34 35 36 36 37 38 39 39 39 39 39 40 40 39 39 40 39 38 38 37 36 35 35 35 34 34 34 34 34 34 34 34 34 35 36 36 37 37 38 38 39 40 40 41 41 40 40 39 39 38 38 37 37 38 38 38 39 39 40 41 41 41 41 41 41 41 41 41 41 41 41 41 41 41 40 40 40 39 39 39 39 39 39
35 35 36 37 38 38 38 39 39 40 40 40 40 40 39 39 40 40 39 39 39 39 38 37 37 36 36 35 35 35 35 35 35 35 36 36 37 38 38 39 39 39 40 40 41 41 41 40 40 39 38 38 37 37 37 37 37 38 38 38 39 40 41 41 42 42 41 41 41 40 40 40 40 41 41 41 41 41 41 41 41 40 40 40 40
36 36 37 39 40 40 39 40 40 40 41 41 41 40 39 38 39 39 39 39 40 40 39 38 38 38 37 37 37 36 36 36 36 37 37 38 39 39 40 40 41 41 41 41 41 41 41 40 39 39 38 38 38 37 37 38 38 39 39 39 39 40 40 41 42 42 42 42 42 42 42 42 41 41 42 42 42 42 42 42 42 42 41 41 41
38 38 38 39 41 41 41 41 42 42 42 42 42 41 39 38 38 39 39 39 39 40 40 39 39 39 39 38 38 38 37 37 38 38 38 39 40 40 41 42 42 42 42 42 42 42 41 40 40 39 38 38 38 38 38 39 39 39 40 40 40 40 40 41 42 42 42 43 43 43 43 43 43 42 42 42 43 43 43 43 43 43 43 43 43
40 40 39 39 41 42 42 42 43 43 43 43 43 42 40 38 37 38 39 39 38 39 40 39 39 40 40 40 40 39 39 39 39 39 39 40 41 41 42 43 43 43 43 43 43 42 42 41 40 40 39 39 39 39 39 39 40 40 40 40 40 40 41 41 42 42 42 43 43 43 43 43 43 42 42 43 43 43 43 43 44 44 44 44 44
43 43 41 40 41 42 43 43 44 44 44 44 43 43 42 39 38 39 39 39 38 39 39 39 39 40 42 42 41 41 41 41 41 41 41 42 42 43 43 43 43 43 43 44 44 43 43 42 41 40 40 40 40 40 40 40 40 40 39 39 39 40 41 42 42 42 42 43 43 43 42 42 42 42 42 43 43 43 43 44 44 44 44 44 44
45 45 44 42 43 43 44 44 44 45 45 44 44 44 44 41 40 40 41 40 40 39 39 39 39 41 42 41 41 42 42 43 43 43 43 43 44 44 44 44 44 44 44 44 44 44 43 43 42 41 41 40 39 40 40 40 40 40 40 39 38 39 40 41 41 42 42 42 42 43 43 42 42 43 43 43 43 43 43 44 44 44 44 44 45
46 47 46 45 45 45 45 45 45 45 46 46 45 46 45 43 42 43 43 43 42 42 42 41 41 42 42 42 42 42 42 42 42 43 44 45 46 46 46 45 45 45 45 45 45 45 44 43 43 42 41 40 40 40 40 40 40 40 40 39 39 39 40 40 40 41 41 41 41 42 42 42 42 43 43 43 43 43 43 43 43 43 43 44 44
45 46 47 47 47 47 46 46 46 46 47 48 47 47 47 45 45 45 45 46 46 45 44 43 44 44 45 45 44 43 43 42 43 43 44 46 47 48 48 47 46 46 46 46 46 46 45 44 44 43 41 41 40 40 40 40 40 40 41 40 40 41 40 40 40 40 40 40 40 41 41 41 41 42 42 43 43 42 42 42 42 42 42 43 43
44 45 46 48 48 49 49 48 47 47 48 49 49 49 49 48 47 47 47 48 48 47 45 45 47 48 49 48 47 47 46 44 43 44 45 47 48 49 49 48 47 47 47 47 47 46 46 45 44 44 43 42 41 41 41 41 41 41 41 41 41 41 41 41 41 40 40 40 40 40 41 41 41 41 41 42 42 42 42 42 42 42 42 42 43
43 44 45 47 48 48 49 49 49 48 49 50 50 50 51 51 50 49 49 50 50 49 48 48 49 50 51 50 50 50 48 46 46 46 46 48 48 49 49 48 48 48 48 48 47 47 47 46 46 45 44 44 43 42 42 42 42 41 41 41 41 41 41 42 42 42 41 41 41 41 41 41 41 41 41 41 42 42 42 42 42 42 42 43 43
42 43 43 45 46 47 48 49 48 48 48 49 50 50 51 51 51 50 51 51 52 52 51 51 51 51 53 53 52 51 49 48 49 49 48 49 49 50 50 49 49 50 49 48 48 49 48 48 47 47 46 45 45 44 43 43 43 42 41 41 41 41 41 42 42 42 42 42 42 42 42 42 42 43 43 43 43 43 43 43 43 43 43 43 43
45 45 44 44 45 46 47 47 47 47 47 48 49 50 50 51 51 51 51 51 52 53 53 52 53 54 55 55 55 53 52 51 52 51 51 51 51 52 51 51 51 50 50 50 50 50 50 50 49 49 48 47 46 46 45 44 44 43 43 42 42 42 42 42 42 43 43 43 43 43 43 43 43 43 44 44 44 44 44 45 44 44 44 44 44
47 47 47 47 47 47 47 48 48 47 47 48 49 50 50 51 51 52 52 52 53 53 53 53 54 56 56 57 57 57 56 55 54 53 53 52 52 53 53 53 53 53 52 51 52 52 52 52 51 50 50 49 48 47 47 46 45 45 44 43 43 43 43 43 44 44 44 44 44 44 44 44 44 44 44 45 45 45 46 46 46 45 45 45 45
48 49 49 50 50 50 50 50 50 50 49 49 50 51 51 52 52 52 52 53 53 53 54 54 54 55 56 58 58 59 59 58 57 56 55 54 53 53 54 55 56 56 54 54 54 54 53 53 53 52 52 51 49 49 48 48 47 47 46 45 45 44 44 44 45 45 45 44 44 44 44 44 44 44 44 45 45 45 46 46 46 46 46 46 45
52 52 52 52 53 53 53 54 54 54 53 52 52 52 53 53 53 53 53 54 54 55 55 55 54 55 56 58 58 59 60 60 59 58 58 56 54 54 55 56 57 57 57 57 56 56 55 55 55 54 54 52 51 50 50 49 49 48 47 47 46 46 46 46 46 45 45 45 45 45 45 45 45 45 45 45 45 45 46 46 47 47 47 46 46
56 56 56 56 56 56 56 57 57 58 58 57 57 56 56 55 55 55 55 55 56 56 56 56 55 55 56 57 58 58 59 60 60 60 60 59 57 56 56 57 58 58 58 58 57 57 57 57 57 56 55 54 53 52 51 51 51 50 49 48 48 48 48 47 47 46 46 46 46 46 46 46 46 46 46 46 46 46 47 47 47 48 48 48 48
59 59 59 59 59 59 59 59 60 61 61 61 61 61 60 59 59 58 58 57 58 58 58 58 57 56 57 58 58 59 59 59 60 61 61 60 59 58 58 59 59 60 59 58 58 58 59 59 59 58 57 55 54 53 53 53 52 51 50 50 50 49 49 49 48 48 47 47 47 47 47 47 47 47 47 47 47 48 48 48 48 48 48 48 48
61 62 62 62 62 61 61 62 63 64 64 64 64 65 64 63 63 62 61 60 60 60 60 60 60 59 58 59 60 61 61 60 61 61 61 61 61 60 60 60 60 60 60 60 59 60 61 61 61 60 58 57 56 55 54 54 53 52 51 51 51 51 51 51 50 50 49 48 48 48 48 48 48 48 48 48 48 49 49 49 49 49 49 49 49
63 64 64 64 63 63 63 64 65 66 67 67 67 68 67 67 67 66 65 64 64 63 63 63 62 62 61 60 61 62 62 62 62 63 62 63 62 61 61 61 60 61 61 61 61 61 62 62 62 61 60 59 58 57 56 56 55 53 53 53 53 53 53 52 52 51 51 50 49 49 49 49 49 49 49 49 49 49 49 50 49 49 49 49 49
63 65 65 65 64 64 64 65 66 67 68 69 70 70 70 70 70 69 69 68 68 67 67 66 66 65 64 63 62 62 62 63 64 64 64 64 64 63 63 63 62 61 62 62 62 62 62 63 63 62 61 61 60 59 58 57 56 55 54 54 54 54 54 54 54 53 52 52 51 50 49 49 50 50 50 50 51 50 50 50 50 50 50 50 50
64 65 66 66 65 65 65 65 65 67 68 69 71 72 73 73 73 72 72 71 71 71 70 70 70 69 68 67 65 64 63 64 65 65 65 65 65 65 64 64 64 63 62 63 63 63 63 63 64 64 63 63 62 61 60 59 58 57 56 56 55 56 56 56 56 55 54 53 52 51 50 50 50 51 51 51 51 51 51 51 51 51 51 51 52
65 66 68 68 68 68 67 67 67 67 68 69 70 72 73 74 75 75 74 74 74 73 73 73 72 72 72 71 70 68 66 65 65 66 66 67 67 66 65 66 66 66 65 64 64 63 64 65 65 65 65 65 64 63 62 61 60 59 58 58 57 57 58 58 58 57 56 55 53 52 52 51 51 51 52 52 52 51 51 51 51 51 52 52 52
68 68 69 71 71 71 71 70 70 69 69 69 70 71 73 74 75 76 76 76 76 76 76 75 74 74 74 73 73 72 70 69 68 67 67 67 68 67 66 66 67 68 68 66 65 65 66 67 67 68 68 67 66 65 64 63 63 62 60 59 58 59 59 59 59 58 57 56 55 54 53 53 53 53 53 53 53 52 52 52 52 52 52 52 52
73 72 72 73 74 74 75 75 74 73 73 73 72 72 73 74 76 77 78 78 78 77 77 77 76 76 76 75 75 75 74 73 72 70 68 68 69 69 68 68 69 70 70 69 67 67 68 70 70 70 69 69 69 68 67 66 65 64 62 61 60 60 60 59 59 59 58 57 56 55 55 54 54 54 54 54 54 54 54 53 53 52 52 52 52
78 77 76 77 77 77 78 78 79 78 78 77 77 76 76 75 76 77 78 79 79 79 79 78 78 78 78 77 77 77 77 77 76 74 72 71 70 70 70 70 70 70 71 71 70 69 70 71 72 72 72 72 71 70 69 68 67 66 64 62 61 61 61 60 60 60 59 58 57 56 55 55 55 55 55 55 56 56 55 55 54 53 53 53 52
81 81 80 80 81 80 80 80 80 81 81 80 80 80 80 80 80 79 79 79 80 80 81 81 80 80 79 79 79 79 80 80 79 78 77 75 73 73 72 72 71 72 72 73 72 71 71 72 74 75 74 74 73 72 71 70 69 67 66 64 63 62 61 61 61 60 59 59 58 57 56 55 55 55 56 56 56 56 56 56 55 54 54 53 53
83 84 84 84 84 84 84 84 84 84 83 83 82 82 82 83 83 83 82 81 81 81 81 82 82 82 82 81 80 80 81 81 80 80 80 78 77 75 74 74 73 72 73 74 74 73 73 74 75 76 76 76 75 74 73 72 70 69 67 66 65 63 62 62 61 60 60 59 58 57 57 56 56 56 56 56 57 57 57 57 56 56 55 54 53
84 85 87 87 87 87 88 89 90 91 90 88 86 85 85 85 84 84 84 83 82 82 81 81 81 82 82 82 82 81 82 81 81 81 81 81 80 78 76 76 75 74 74 74 74 75 75 75 76 77 78 78 77 76 76 74 72 70 68 67 65 64 63 62 61 61 60 59 59 58 57 57 57 56 56 57 58 58 58 58 58 57 57 56 54
84 86 88 89 88 88 88 88 90 92 94 94 92 90 89 87 85 85 86 85 84 83 82 80 80 80 81 81 81 81 82 81 80 80 80 81 81 80 79 77 76 75 75 75 75 76 76 76 77 78 79 79 79 78 78 76 74 72 69 67 66 64 64 63 62 62 61 60 60 59 59 58 58 58 58 58 58 58 59 59 59 58 58 57 55
82 84 87 88 88 89 89 89 88 89 91 93 96 96 93 90 88 86 87 88 88 86 84 83 81 81 80 79 79 80 81 81 80 79 79 79 80 80 79 78 77 75 75 76 77 76 77 77 78 79 79 80 80 80 80 79 76 73 70 68 66 65 65 64 63 62 62 61 61 61 60 60 61 60 60 60 60 59 59 59 59 58 57 56 54
82 83 84 86 87 88 90 91 92 91 90 90 92 93 93 92 91 88 87 89 90 90 89 87 85 84 82 80 79 79 80 80 79 79 79 78 78 79 79 79 78 77 76 77 77 77 77 77 78 80 81 81 81 81 81 80 78 75 72 70 68 67 66 65 64 63 63 63 63 62 62 61 61 61 61 61 61 60 60 59 59 58 57 55 54
89 88 89 89 89 90 91 93 95 95 95 94 92 92 92 92 92 91 90 91 92 92 92 91 90 87 85 82 80 79 79 78 77 78 79 79 78 78 77 78 79 79 78 77 78 78 78 78 79 81 83 83 83 82 82 81 79 76 73 72 70 69 67 66 65 64 63 63 62 61 60 60 60 60 60 60 61 61 60 60 59 58 57 55 54
95 95 95 95 96 96 98 99 100 100 100 99 97 95 94 93 93 92 92 94 95 93 91 91 91 90 88 85 83 81 79 78 77 77 78 78 78 77 77 77 79 80 80 78 78 79 79 78 80 82 83 84 85 84 83 82 80 78 75 73 71 69 67 66 65 64 63 61 60 58 58 58 59 59 60 60 60 61 60 60 59 58 57 56 55
98 98 98 98 98 98 99 100 101 102 102 101 100 99 97 96 95 94 94 96 98 96 93 90 89 90 89 88 86 84 81 80 79 79 79 78 78 78 77 78 80 81 81 80 79 79 79 79 81 82 84 85 86 85 84 83 81 78 75 73 71 69 68 67 65 64 62 60 58 57 57 58 59 60 60 60 60 61 61 61 60 59 58 57 56
98 98 98 97 97 97 97 97 98 99 99 100 100 100 99 98 97 97 97 97 98 99 98 95 92 90 89 88 88 87 85 83 80 80 80 80 80 79 78 79 81 82 82 81 80 80 80 80 81 83 85 86 86 85 83 81 78 76 74 73 72 70 69 66 64 63 61 59 58 57 56 56 58 59 60 61 61 62 62 61 60 59 58 58 57
96 97 97 97 96 96 96 96 96 97 97 98 98 99 98 98 97 98 98 98 99 99 99 98 96 94 92 90 89 88 87 86 85 83 81 81 81 81 80 81 83 83 83 83 82 81 80 81 82 84 87 86 85 83 82 79 77 76 75 74 71 68 66 63 61 59 58 58 57 56 55 55 56 58 59 61 62 62 62 61 60 59 59 58 58
97 97 97 97 97 97 97 96 96 96 96 97 97 98 98 98 97 97 97 98 99 100 100 99 97 96 95 94 92 90 88 87 87 87 85 83 81 81 82 84 85 84 84 84 84 83 81 82 83 85 87 86 84 83 81 79 78 78 76 73 69 65 62 59 57 57 57 58 58 57 55 54 54 56 58 60 62 62 61 61 60 59 59 59 59
101 101 100 100 100 100 100 99 99 98 98 97 98 98 99 99 99 98 98 97 98 99 101 100 99 97 95 94 94 93 91 89 87 87 87 87 85 84 83 84 85 86 85 84 85 85 84 83 85 87 87 86 85 83 82 80 79 77 73 69 65 62 60 58 57 58 58 59 60 58 56 54 53 55 57 60 61 60 60 60 60 60 60 60 60
105 105 105 105 104 104 104 104 104 103 102 101 100 101 101 101 102 102 101 100 99 99 99 101 101 99 97 95 93 92 92 92 91 88 86 86 88 89 88 86 84 85 86 85 85 85 86 86 87 88 87 87 86 84 83 81 78 73 69 66 64 63 62 59 58 57 58 59 60 59 57 55 53 54 56 58 60 60 60 60 61 61 61 61 61
106 106 107 107 107 107 107 107 108 107 106 105 105 105 105 105 105 106 106 105 103 101 100 100 101 102 101 99 96 93 91 91 92 93 90 87 86 88 91 90 87 84 84 85 86 85 86 88 89 89 89 90 89 87 84 82 77 71 68 67 66 65 63 60 59 59 59 59 60 59 58 56 55 55 55 57 59 61 61 62 62 63 63 62 62
103 104 105 106 107 108 108 109 109 109 109 108 108 109 109 108 109 109 110 109 108 106 104 102 101 102 102 102 101 97 94 91 90 92 94 94 91 87 88 90 91 89 85 83 84 85 87 89 90 90 91 92 91 88 84 80 76 72 70 69 68 67 66 64 62 61 60 60 61 60 59 59 59 58 57 58 60 61 62 63 64 64 64 64 64
100 100 101 102 103 105 106 107 109 109 109 109 109 109 110 110 110 110 111 112 111 111 109 107 105 104 103 104 104 102 100 96 92 90 92 96 97 94 89 88 90 92 91 87 83 83 85 87 89 91 92 93 92 88 83 80 77 75 73 71 70 70 69 68 65 63 61 61 62 63 62 62 62 61 60 60 60 60 61 63 64 65 65 65 65
96 96 96 97 98 99 100 102 104 105 106 106 106 107 108 109 109 110 110 111 111 112 112 111 110 109 107 105 105 105 104 102 98 94 92 94 96 98 96 92 89 90 92 91 90 87 85 85 87 89 92 94 93 89 85 83 80 78 76 74 72 72 72 71 68 65 63 64 64 65 65 65 64 64 63 62 60 60 60 61 63 64 64 64 65
93 93 93 93 93 93 94 95 97 99 100 100 100 101 102 104 105 106 108 108 109 110 111 112 112 112 111 109 107 106 106 106 104 101 98 96 95 96 97 97 95 92 89 90 93 94 92 89 86 86 89 92 93 92 89 86 84 81 78 75 74 75 76 74 70 68 68 67 66 67 68 68 67 68 67 65 62 62 62 61 62 62 63 63 64
91 91 91 92 91 90 91 92 92 94 95 95 95 96 97 98 99 101 103 105 106 106 106 107 109 111 112 112 111 110 108 107 108 107 105 102 99 96 96 97 98 96 91 90 93 95 95 95 92 89 88 88 90 91 90 89 87 84 80 78 77 78 77 76 74 73 71 69 68 69 72 71 71 71 71 69 67 64 63 63 62 62 63 64 64
Wind_Direction
269 269 270 271 271 272 272 271 271 271 270 270 271 271 271 272 272 272 271 270 268 267 267 266 265 265 264 264 264 264 265 266 266 267 267 268 268 268 268 268 268 267 267 267 267 266 266 266 265 264 263 263 262 263 263 263 263 264 264 265 266 266 267 267 267 266 266 265 264 263 262 260 259 258 256 255 254 253 252 251 250 250 250 250 250
267 268 270 270 271 271 272 271 271 270 270 269 270 270 270 270 271 271 271 270 269 268 267 266 265 265 265 264 264 264 264 265 266 266 267 268 268 268 268 269 269 269 268 268 268 268 268 267 267 266 266 266 265 265 265 265 265 266 266 266 267 267 268 268 268 268 267 266 265 264 264 263 262 260 258 257 255 254 253 252 251 251 251 251 251
267 267 268 269 269 270 270 271 270 270 270 269 268 268 268 268 269 269 269 269 269 269 268 267 266 265 265 264 264 264 264 265 265 266 267 268 268 269 269 269 270 270 270 270 270 269 269 269 269 268 268 268 267 268 268 268 267 267 267 267 267 268 268 269 269 269 268 267 266 266 265 264 263 263 261 259 257 256 254 253 252 251 251 251 251
267 266 266 267 267 268 268 269 269 269 268 268 267 267 267 267 267 267 267 268 268 269 269 268 267 267 266 265 265 265 265 266 266 267 268 268 269 269 270 270 270 271 271 271 271 270 270 270 270 270 270 269 269 269 270 270 269 269 268 268 268 268 268 269 269 269 269 268 267 266 266 265 264 264 263 262 261 259 258 255 254 252 252 251 252
267 266 265 265 266 266 267 267 267 267 267 267 266 266 266 266 266 266 266 266 267 266 267 267 267 267 267 266 266 266 267 267 267 268 268 269 270 270 270 271 271 271 272 272 272 272 271 271 271 271 270 270 270 270 270 271 270 270 269 269 269 268 267 267 268 268 268 267 267 267 266 266 265 265 264 264 263 262 261 258 256 254 253 253 253
268 267 267 266 265 265 265 266 267 267 267 267 266 265 265 265 265 265 265 265 265 265 265 265 266 266 266 266 266 267 267 268 268 268 268 268 269 269 270 270 271 271 271 272 272 272 272 272 272 272 271 271 271 271 271 272 272 271 270 270 269 268 267 267 266 266 266 266 266 266 266 266 266 265 265 265 265 264 263 260 258 256 255 254 254
269 268 268 268 267 266 267 267 268 269 269 269 268 266 265 265 264 264 264 264 264 264 264 264 264 264 264 264 265 265 266 267 267 267 267 267 267 267 268 269 269 270 270 271 271 272 272 272 272 272 272 272 273 274 274 274 274 273 272 271 269 268 268 267 265 264 264 264 264 264 264 265 265 265 265 265 265 265 264 262 260 258 257 256 255
267 268 268 269 269 269 269 269 270 270 271 271 270 269 267 266 266 265 264 263 263 263 263 262 262 262 262 263 263 264 264 265 265 265 265 265 265 265 266 267 267 268 268 269 270 270 270 270 270 270 271 272 273 273 274 274 273 273 273 272 270 268 267 267 266 264 263 262 262 262 263 263 264 264 265 265 265 265 264 262 261 259 258 257 256
265 266 267 269 269 269 269 270 271 271 271 272 272 271 270 269 268 267 265 264 263 263 262 262 261 261 261 260 261 261 262 263 263 263 263 263 263 264 264 265 265 266 267 268 268 268 269 268 268 269 269 270 272 272 273 273 272 271 271 270 269 268 267 266 266 265 264 263 262 262 262 262 263 263 264 264 264 264 263 262 261 260 259 258 258
264 266 267 268 269 269 269 269 269 270 271 272 273 273 272 271 270 268 266 264 263 262 262 262 262 262 261 260 260 260 260 261 261 262 262 262 263 263 263 264 264 265 266 266 266 267 267 267 267 268 269 270 271 273 273 272 271 270 269 268 268 267 266 266 265 265 264 263 263 262 262 262 262 262 262 262 262 262 262 262 262 261 260 260 259
266 267 267 268 269 269 268 268 268 269 270 271 273 273 273 271 269 268 266 264 262 262 262 262 262 262 261 261 261 261 260 260 260 260 261 262 263 264 264 265 265 266 266 266 266 266 266 267 267 268 269 270 272 273 274 273 272 270 268 267 266 265 264 264 264 263 263 263 263 263 262 262 262 261 260 260 260 261 262 262 263 263 263 263 262
268 267 267 267 268 268 267 267 268 269 270 270 271 271 271 270 269 268 266 265 263 262 262 262 261 261 262 263 263 262 262 262 262 262 262 263 263 264 264 265 266 266 266 265 266 266 266 266 267 267 268 270 272 273 274 273 272 270 267 265 264 263 263 263 263 262 262 262 262 262 262 262 262 261 261 261 260 261 262 262 263 264 264 264 264
266 268 268 267 266 266 266 266 267 268 269 269 269 270 270 269 268 268 267 267 266 265 264 264 264 264 265 264 264 264 264 265 264 264 263 264 264 264 264 265 265 266 265 265 265 265 265 265 265 266 267 269 271 273 273 273 271 270 267 265 263 263 263 262 262 262 262 261 261 261 261 261 261 261 262 262 261 261 261 262 262 262 263 263 263
265 267 269 268 268 267 267 266 266 266 267 268 269 270 270 269 268 267 267 267 267 267 267 268 269 268 267 267 267 267 267 266 266 265 265 265 264 264 264 264 264 265 265 264 264 264 264 264 265 265 266 267 270 272 272 271 271 270 268 266 263 262 262 262 262 261 261 260 260 260 260 260 260 260 261 261 261 261 261 261 261 261 262 262 263
265 266 267 269 269 269 269 268 267 267 268 269 269 270 271 271 270 269 268 268 268 268 269 270 270 269 270 270 270 269 268 269 270 269 267 265 265 265 265 265 265 265 264 264 264 264 264 264 264 264 264 266 268 270 271 270 270 269 268 267 265 263 262 262 262 261 260 260 259 259 259 259 259 259 259 260 260 261 260 260 260 261 261 262 262
265 265 265 267 269 270 270 270 270 270 270 270 270 270 270 271 270 270 270 270 270 270 269 268 268 269 270 271 270 270 271 272 271 269 268 267 266 266 266 265 265 265 265 265 265 265 264 263 263 263 263 264 266 268 269 269 269 269 269 268 267 265 263 262 262 261 261 260 259 259 259 259 259 259 259 259 259 259 260 260 260 260 261 261 262
267 266 265 265 266 268 268 269 270 270 270 270 270 270 269 269 269 269 269 270 271 270 269 268 268 269 269 269 269 270 271 271 269 269 268 268 267 266 266 265 264 265 265 265 265 265 264 263 263 262 262 262 264 266 268 269 268 268 269 268 268 267 266 265 263 262 262 261 261 261 261 261 261 260 260 260 260 260 260 260 260 260 260 261 261
269 268 268 267 266 266 267 267 268 268 268 268 268 268 268 268 269 268 268 268 269 268 269 269 269 269 269 270 270 270 269 268 268 268 267 268 268 267 266 266 265 265 265 265 264 263 263 263 262 262 262 262 263 265 267 268 268 268 268 268 268 268 267 267 266 265 264 263 263 263 263 263 262 262 262 262 261 261 260 260 260 260 260 260 260
270 270 269 269 269 268 268 267 267 267 266 266 266 267 267 267 267 268 268 268 267 267 268 269 269 268 269 270 270 270 269 268 267 267 267 267 268 268 268 267 266 265 264 263 263 263 263 263 263 262 262 262 263 264 266 267 268 267 267 267 267 267 267 267 267 266 265 265 264 265 265 265 264 264 264 263 263 262 261 261 260 260 260 260 260
268 269 269 270 270 270 270 269 269 267 266 265 265 266 266 266 266 266 267 267 267 267 267 267 267 268 269 269 269 269 269 269 268 268 268 267 268 268 268 266 266 265 263 263 263 263 264 264 264 263 263 262 262 263 265 266 266 266 266 266 266 266 266 266 266 266 266 266 265 265 265 265 265 265 265 264 264 264 263 262 261 261 261 260 260
266 266 266 267 267 268 268 269 269 269 267 266 265 264 264 265 265 265 265 265 266 266 266 266 267 268 268 269 269 269 270 270 270 270 269 269 268 267 266 265 265 264 263 263 262 263 263 263 263 263 263 262 262 262 263 264 265 265 265 265 265 265 265 266 266 266 266 266 266 266 266 266 266 266 266 266 265 265 264 264 263 262 262 261 261
265 265 265 265 265 264 265 266 266 267 267 267 266 265 264 263 263 263 263 264 265 265 266 266 266 266 267 268 269 270 270 271 271 271 270 269 268 266 265 265 264 264 263 263 262 262 262 262 262 262 262 262 261 261 262 262 263 264 264 264 264 264 265 265 265 265 265 265 266 266 266 266 266 266 266 266 266 265 265 264 264 263 263 262 262
265 265 265 264 264 263 263 264 264 264 264 265 265 265 265 264 264 263 263 263 263 265 265 266 266 266 266 267 267 268 269 269 270 270 270 269 268 267 265 264 264 264 263 262 261 260 261 261 261 262 262 261 260 260 260 261 262 263 263 263 263 263 264 265 265 265 265 265 265 265 265 265 265 265 265 265 265 264 264 264 264 263 263 263 263
265 265 265 264 264 263 263 263 263 263 263 262 263 263 264 265 265 265 265 264 264 264 264 265 265 265 266 266 267 267 267 267 268 268 269 269 269 268 266 265 265 265 264 263 260 259 260 260 260 261 261 261 260 259 259 259 260 261 262 262 262 262 262 263 264 265 265 265 265 265 265 265 264 264 264 263 263 263 263 263 263 263 263 263 263
265 265 264 264 263 263 263 264 263 263 262 262 262 261 262 262 263 264 265 266 266 265 265 265 264 264 264 265 266 267 267 268 268 268 268 268 268 268 268 266 265 265 265 264 262 260 260 260 260 261 261 261 261 260 259 258 259 260 260 260 260 260 261 262 263 263 264 265 265 265 266 265 265 264 263 263 262 262 262 262 262 262 263 263 263
264 264 264 263 263 263 263 264 264 264 263 263 262 262 261 260 261 262 263 265 266 266 266 266 265 265 265 264 264 265 266 267 267 268 268 268 268 268 268 267 266 265 265 265 264 262 261 260 260 260 260 260 260 260 259 259 259 259 260 260 259 259 260 260 261 262 263 263 264 265 265 265 265 264 263 262 261 261 262 262 262 262 262 263 263
262 263 263 263 263 263 263 263 262 263 263 263 262 262 262 261 260 260 261 262 263 265 266 266 266 266 266 265 264 263 263 264 265 266 267 267 268 268 268 268 268 266 265 265 265 263 261 259 260 260 260 260 260 260 259 259 259 259 259 259 259 259 259 259 260 261 262 263 264 264 264 264 264 263 262 261 260 260 261 261 262 262 262 263 263
261 262 262 262 263 264 263 263 262 262 262 262 262 262 262 261 261 260 260 261 261 262 263 264 265 265 266 265 265 264 263 262 263 264 265 265 266 266 267 268 268 268 266 265 264 263 261 259 259 259 259 260 260 259 259 259 258 258 259 259 258 258 258 258 259 260 261 263 264 264 264 263 263 262 261 260 260 259 259 260 260 261 262 262 263
262 261 260 261 262 262 262 262 263 263 262 262 261 261 261 261 261 261 260 260 260 261 261 262 263 264 265 265 265 264 263 262 262 262 263 264 265 265 265 265 266 266 266 265 264 262 260 260 259 259 259 260 260 259 259 259 259 259 258 258 258 258 258 259 259 260 261 262 263 263 263 263 262 262 261 260 259 258 258 259 259 260 261 261 262
264 262 260 259 259 260 260 261 262 263 263 263 262 261 260 259 259 259 260 260 260 260 260 260 261 262 263 263 263 264 264 263 262 261 261 261 262 263 263 263 264 264 265 265 264 262 260 260 260 259 258 259 260 260 259 259 260 260 260 260 260 259 259 260 260 260 261 262 263 263 263 262 262 261 260 260 259 258 258 258 259 259 260 261 262
264 264 263 262 261 260 260 260 261 262 262 262 262 262 261 260 259 258 258 259 259 259 259 259 260 260 261 261 262 262 263 263 263 262 261 260 260 261 261 262 262 262 263 263 263 262 261 260 260 259 258 258 259 260 260 260 260 261 261 261 261 260 260 260 261 261 262 263 263 263 263 262 261 261 260 260 259 258 258 258 259 259 260 261 261
259 261 262 263 263 263 263 263 263 264 264 264 263 262 262 262 261 260 259 259 258 258 259 259 259 260 260 260 261 261 262 262 262 262 261 260 259 259 259 259 260 260 261 261 262 262 261 260 260 259 259 258 259 259 259 259 260 261 261 261 261 262 262 262 262 262 263 263 264 264 263 263 262 261 260 260 260 259 259 259 259 259 259 260 260
255 256 257 258 260 262 263 263 264 265 265 266 267 267 266 264 264 263 262 261 260 259 258 258 259 259 259 259 260 260 261 261 261 262 261 261 259 258 258 258 258 258 259 260 260 260 260 259 259 259 259 258 258 259 259 259 259 260 260 261 262 262 262 263 263 263 263 264 264 264 263 263 263 262 261 261 261 260 260 260 260 259 259 259 258
255 255 255 255 256 257 259 260 262 264 265 265 267 269 269 268 268 267 265 264 263 262 261 259 258 258 258 258 259 259 260 260 261 261 261 261 260 259 258 257 257 257 257 257 258 258 258 258 258 258 258 259 259 259 259 259 259 260 260 261 261 262 262 263 263 263 264 264 263 263 263 263 262 262 262 261 261 260 260 260 260 259 259 258 257
257 257 257 257 257 257 257 258 259 260 262 264 265 268 269 268 267 268 268 267 266 265 264 262 261 259 258 257 258 258 258 258 259 260 260 261 260 259 258 257 256 256 256 256 256 256 257 257 257 256 257 258 258 259 259 260 260 260 261 261 261 261 262 262 263 263 263 263 263 262 262 261 261 261 261 261 261 260 260 260 259 258 258 257 256
260 260 260 261 261 261 261 261 261 260 260 262 264 266 267 266 265 266 267 268 267 266 265 264 263 262 261 259 258 257 257 258 257 258 259 259 260 259 258 257 256 255 255 255 255 255 255 255 256 256 255 256 256 257 259 260 261 261 261 261 261 261 262 262 263 263 263 263 263 262 261 260 259 259 260 261 261 260 260 259 257 257 256 255 255
266 265 264 263 263 263 263 264 265 265 265 264 264 265 266 266 265 264 264 266 266 266 265 264 263 263 262 260 259 258 257 257 257 257 257 258 258 259 259 258 256 254 253 253 254 253 253 254 254 254 254 255 255 257 258 259 260 261 261 262 261 261 262 263 263 263 263 263 263 263 261 260 259 259 259 260 260 260 259 257 256 254 253 253 253
271 270 269 268 267 267 267 266 267 267 267 267 266 266 265 266 266 265 263 263 264 264 264 263 263 262 261 260 259 258 257 257 256 255 255 256 257 258 258 258 256 254 252 252 252 252 251 251 252 253 253 254 255 256 257 259 260 261 261 262 262 262 263 263 263 263 263 264 264 263 263 261 260 259 259 259 259 259 258 256 254 252 252 252 252
273 272 272 271 271 271 270 270 270 269 268 268 267 266 265 264 264 264 263 262 263 263 262 262 261 261 260 260 258 257 257 256 255 254 254 254 255 255 256 257 256 254 252 251 250 250 249 249 249 251 252 253 254 255 256 258 260 261 262 263 263 263 262 261 261 262 263 264 264 264 263 262 260 259 259 258 258 258 256 254 252 251 251 251 252
272 272 272 271 271 270 270 269 268 268 268 267 267 266 265 264 263 262 262 262 262 263 262 261 260 260 259 259 258 258 256 255 255 254 254 254 253 254 254 255 255 255 253 250 249 249 248 247 248 249 250 252 253 254 256 258 260 262 263 262 261 261 260 259 260 261 263 264 264 264 264 262 261 260 258 258 258 257 256 254 252 251 251 251 252
273 272 272 271 271 270 269 268 267 266 266 266 266 266 265 264 263 262 261 261 262 263 263 263 261 260 259 259 258 258 257 256 255 254 254 254 254 254 253 253 254 254 253 251 249 248 247 246 246 248 249 251 252 254 256 258 260 261 260 259 259 259 258 258 259 261 263 264 266 265 264 262 261 259 258 258 257 256 255 253 251 251 250 251 252
273 273 272 272 271 270 269 268 267 266 265 265 264 264 264 264 263 262 261 260 260 261 262 263 262 262 260 259 258 258 257 257 256 255 254 254 254 254 253 252 252 253 253 251 249 247 245 245 245 247 249 251 253 254 256 257 258 258 258 258 257 256 256 257 258 260 263 265 266 264 263 261 260 258 257 257 256 255 253 252 251 250 251 252 253
272 271 271 271 270 270 269 268 267 266 266 265 265 264 264 263 263 262 261 260 260 260 260 261 262 262 261 260 259 258 257 257 256 256 255 254 254 254 253 253 252 252 252 251 250 247 244 243 244 245 248 251 252 253 254 255 256 256 256 256 254 254 256 258 260 262 265 266 266 264 262 261 259 258 257 257 255 253 251 251 250 251 252 253 254
272 271 270 270 269 269 269 268 267 267 266 266 265 265 265 264 263 262 261 259 258 258 258 259 259 260 260 260 259 258 257 256 255 255 255 254 254 253 253 253 252 252 251 251 250 248 244 241 241 244 247 249 251 252 253 254 255 254 253 253 254 255 257 260 263 265 266 266 266 264 262 260 259 258 257 256 254 252 251 251 252 252 253 254 255
273 272 271 271 270 269 269 268 267 267 266 265 265 265 265 265 265 264 263 261 259 257 256 256 257 257 258 258 258 258 257 256 255 254 254 254 254 253 253 253 253 252 252 251 249 248 245 242 240 243 247 249 249 250 251 252 251 250 250 253 255 257 259 262 263 264 264 264 264 264 262 260 259 258 257 256 254 252 253 253 254 254 255 256 257
274 274 273 272 271 270 270 269 268 267 267 266 265 265 265 265 265 264 264 262 261 259 257 255 255 255 255 256 256 256 256 255 254 254 253 253 253 253 253 253 253 252 251 250 249 247 245 243 242 244 246 247 247 247 248 248 247 247 250 254 256 257 258 259 259 260 261 262 263 263 262 261 260 259 258 257 255 254 255 256 256 256 257 257 257
275 275 274 274 273 272 271 271 270 269 268 267 267 266 265 265 265 265 264 263 262 260 259 257 255 254 253 253 254 254 255 255 255 254 253 252 252 252 252 252 252 252 251 250 249 247 245 242 241 242 243 244 245 246 246 246 245 246 250 253 254 255 256 258 259 260 260 261 261 261 260 259 259 259 258 258 257 257 257 257 257 257 257 257 258
276 275 275 275 274 274 273 272 271 270 269 268 268 267 266 266 265 264 264 264 263 261 259 258 257 255 254 252 252 252 252 253 254 254 254 253 252 252 252 252 252 252 251 251 249 248 247 244 242 241 242 243 245 245 244 244 244 246 250 252 252 254 257 260 262 260 259 259 259 259 258 258 258 258 258 258 258 258 258 257 257 257 257 257 257
277 277 276 275 275 274 274 273 273 272 271 269 269 268 267 267 266 264 263 263 263 262 260 258 257 256 255 254 252 251 250 251 252 253 253 253 253 251 251 251 251 251 251 251 251 250 248 247 245 243 243 244 245 245 244 243 244 246 249 251 254 256 260 262 262 260 259 258 258 258 259 259 259 260 259 258 257 258 258 258 257 257 256 256 257
279 278 277 276 275 274 274 273 273 272 272 271 270 269 268 268 267 266 264 263 261 261 260 259 258 256 255 254 254 252 250 249 250 252 253 253 253 252 251 251 251 250 251 251 252 252 250 248 247 245 245 245 246 246 245 244 245 246 249 253 256 258 261 263 262 260 259 258 258 259 260 260 260 262 262 261 259 258 258 258 258 257 257 257 258
280 279 278 278 276 275 274 273 273 272 272 271 271 270 269 268 268 267 266 264 262 260 259 259 258 257 256 254 254 253 252 250 249 251 252 253 253 253 252 252 251 250 250 251 251 252 251 251 249 247 246 246 247 247 247 246 247 248 251 255 258 259 262 263 262 260 260 261 261 262 262 262 262 262 263 262 260 259 259 260 261 261 259 259 260
Height
5828 5827 5826 5827 5828 5828 5828 5828 5829 5829 5829 5830 5830 5830 5830 5831 5831 5831 5831 5831 5831 5831 5831 5831 5831 5832 5832 5832 5833 5833 5834 5834 5835 5835 5836 5836 5837 5837 5837 5838 5838 5838 5839 5839 5840 5840 5841 5841 5842 5843 5843 5844 5844 5844 5844 5845 5846 5847 5847 5847 5847 5847 5847 5848 5848 5849 5850 5850 5851 5852 5853 5854 5854 5855 5855 5855 5856 5856 5856 5857 5857 5857 5858 5858 5859
5824 5824 5823 5823 5824 5824 5824 5824 5825 5825 5825 5826 5826 5826 5827 5827 5827 5827 5827 5827 5827 5827 5827 5827 5828 5828 5828 5829 5829 5829 5830 5830 5831 5831 5832 5832 5833 5833 5833 5834 5834 5835 5835 5836 5836 5836 5837 5837 5838 5838 5839 5840 5840 5840 5840 5841 5842 5842 5843 5843 5843 5843 5843 5844 5844 5845 5846 5847 5847 5848 5849 5849 5850 5851 5852 5852 5852 5853 5853 5853 5854 5854 5854 5855 5855
5820 5820 5819 5819 5820 5820 5819 5819 5820 5820 5820 5821 5822 5821 5822 5823 5823 5823 5823 5823 5824 5824 5824 5824 5824 5824 5825 5825 5825 5826 5826 5826 5827 5827 5828 5828 5829 5829 5830 5830 5830 5831 5831 5832 5832 5832 5833 5833 5834 5834 5835 5835 5836 5836 5835 5837 5838 5838 5838 5839 5839 5839 5839 5840 5840 5841 5842 5842 5843 5843 5844 5845 5846 5847 5848 5848 5849 5849 5849 5850 5850 5850 5851 5851 5851
5816 5816 5816 5815 5815 5816 5816 5815 5815 5815 5815 5816 5817 5816 5817 5818 5818 5819 5819 5819 5820 5820 5820 5820 5821 5821 5821 5822 5822 5822 5822 5823 5823 5824 5824 5824 5825 5825 5826 5826 5826 5827 5827 5828 5828 5828 5829 5829 5830 5830 5830 5830 5831 5832 5831 5832 5834 5834 5834 5834 5835 5835 5835 5836 5836 5837 5837 5838 5838 5839 5839 5840 5841 5842 5843 5844 5845 5845 5846 5846 5846 5847 5847 5847 5848
5812 5812 5812 5812 5811 5811 5811 5811 5811 5811 5811 5811 5812 5812 5812 5813 5813 5814 5814 5815 5815 5815 5816 5816 5817 5817 5817 5818 5818 5818 5819 5819 5819 5820 5820 5820 5821 5821 5821 5822 5822 5823 5823 5823 5824 5824 5825 5825 5825 5826 5826 5826 5827 5828 5828 5828 5829 5830 5830 5830 5831 5831 5831 5832 5832 5832 5833 5833 5833 5834 5835 5835 5836 5837 5838 5839 5840 5840 5841 5842 5843 5843 5843 5844 5844
5808 5808 5808 5808 5807 5807 5807 5807 5807 5806 5806 5807 5807 5807 5808 5809 5809 5809 5810 5810 5810 5811 5812 5812 5812 5813 5813 5814 5814 5814 5815 5815 5815 5815 5816 5816 5816 5816 5817 5817 5818 5818 5819 5819 5819 5820 5821 5821 5821 5822 5822 5822 5823 5824 5824 5824 5825 5825 5826 5826 5827 5827 5827 5828 5828 5828 5828 5828 5829 5830 5830 5831 5832 5832 5833 5834 5835 5836 5837 5838 5838 5839 5839 5840 5840
5804 5804 5804 5804 5803 5803 5803 5803 5803 5803 5803 5803 5803 5803 5804 5805 5804 5804 5805 5806 5805 5806 5807 5807 5808 5808 5809 5809 5809 5810 5810 5811 5811 5811 5811 5812 5812 5812 5812 5813 5813 5814 5814 5815 5815 5816 5817 5817 5818 5818 5818 5818 5819 5819 5820 5820 5821 5821 5821 5822 5822 5822 5823 5823 5823 5823 5824 5824 5825 5826 5826 5827 5827 5828 5828 5829 5830 5831 5832 5833 5834 5834 5835 5836 5836
5799 5800 5800 5800 5799 5800 5800 5799 5799 5799 5799 5798 5798 5799 5800 5801 5800 5800 5801 5801 5801 5801 5802 5802 5803 5803 5804 5804 5805 5805 5806 5806 5806 5806 5807 5807 5807 5808 5808 5809 5809 5810 5810 5811 5812 5812 5813 5813 5814 5814 5814 5815 5815 5815 5816 5816 5817 5817 5817 5818 5818 5818 5818 5818 5818 5819 5819 5819 5820 5821 5821 5822 5823 5823 5824 5825 5825 5826 5827 5828 5829 5830 5830 5831 5832
5794 5795 5796 5796 5795 5796 5796 5795 5795 5795 5795 5794 5795 5795 5796 5797 5797 5796 5796 5796 5797 5796 5797 5798 5798 5798 5799 5799 5800 5800 5801 5801 5802 5802 5803 5803 5803 5803 5804 5804 5805 5806 5806 5807 5807 5808 5808 5809 5809 5810 5810 5811 5811 5811 5812 5812 5812 5812 5813 5813 5813 5813 5814 5814 5814 5814 5814 5815 5815 5816 5817 5818 5818 5819 5820 5820 5821 5821 5822 5823 5824 5825 5825 5826 5827
5789 5790 5791 5791 5790 5791 5791 5791 5791 5791 5791 5791 5791 5791 5792 5793 5793 5792 5791 5792 5792 5792 5792 5793 5794 5794 5794 5794 5795 5796 5796 5796 5797 5797 5798 5798 5798 5799 5799 5800 5800 5801 5802 5802 5802 5803 5804 5804 5805 5805 5806 5806 5806 5806 5807 5807 5807 5808 5808 5808 5809 5809 5809 5809 5809 5809 5810 5810 5811 5811 5812 5813 5814 5814 5815 5815 5816 5816 5817 5818 5819 5820 5820 5821 5822
5785 5785 5786 5786 5785 5786 5786 5786 5786 5787 5787 5787 5787 5787 5787 5788 5788 5787 5787 5787 5788 5788 5788 5789 5789 5789 5789 5789 5790 5791 5791 5791 5791 5792 5793 5793 5793 5794 5794 5794 5795 5796 5797 5797 5797 5798 5799 5799 5799 5800 5801 5801 5801 5801 5801 5802 5802 5802 5803 5804 5804 5804 5803 5803 5804 5804 5805 5806 5806 5807 5807 5808 5809 5809 5810 5810 5811 5811 5812 5813 5814 5815 5816 5816 5817
5781 5780 5781 5781 5781 5780 5780 5781 5782 5782 5782 5782 5783 5782 5782 5784 5784 5783 5782 5783 5784 5784 5784 5784 5785 5784 5784 5785 5785 5785 5786 5786 5787 5788 5788 5788 5788 5789 5789 5789 5790 5791 5791 5791 5792 5793 5793 5794 5794 5795 5795 5796 5796 5796 5796 5796 5796 5797 5798 5798 5799 5798 5798 5798 5799 5799 5800 5801 5801 5802 5803 5803 5804 5804 5805 5805 5806 5807 5808 5808 5809 5810 5810 5811 5812
5775 5775 5776 5776 5776 5776 5776 5776 5777 5777 5777 5777 5777 5777 5777 5779 5779 5779 5778 5779 5779 5779 5780 5780 5780 5780 5780 5780 5780 5780 5781 5782 5782 5783 5783 5783 5783 5783 5783 5784 5785 5785 5786 5786 5786 5787 5788 5788 5788 5789 5790 5790 5791 5791 5791 5791 5791 5791 5792 5793 5793 5793 5793 5793 5794 5794 5795 5796 5796 5797 5798 5798 5799 5799 5800 5801 5801 5802 5803 5803 5804 5805 5805 5806 5807
5771 5771 5771 5771 5771 5771 5772 5772 5773 5773 5772 5772 5772 5772 5772 5774 5774 5774 5774 5773 5774 5775 5776 5776 5776 5776 5775 5774 5775 5776 5776 5777 5777 5778 5778 5778 5777 5777 5778 5779 5779 5780 5780 5780 5781 5781 5782 5783 5783 5784 5785 5785 5785 5785 5786 5786 5786 5786 5786 5787 5788 5788 5788 5788 5789 5789 5790 5791 5791 5792 5792 5793 5793 5794 5795 5796 5796 5797 5798 5798 5799 5799 5800 5801 5801
5766 5766 5765 5765 5766 5767 5767 5768 5769 5769 5769 5768 5768 5767 5767 5768 5769 5769 5768 5768 5768 5770 5772 5772 5771 5769 5769 5769 5771 5770 5771 5772 5773 5773 5773 5771 5771 5771 5772 5773 5774 5774 5775 5775 5775 5776 5776 5777 5777 5778 5779 5779 5779 5780 5780 5780 5780 5781 5781 5782 5782 5783 5783 5783 5783 5784 5784 5785 5786 5786 5787 5787 5788 5789 5789 5790 5791 5792 5792 5793 5793 5794 5794 5795 5796
5761 5761 5760 5760 5760 5761 5761 5762 5763 5764 5764 5763 5763 5763 5763 5763 5763 5763 5763 5763 5762 5764 5765 5765 5764 5764 5763 5763 5764 5764 5766 5768 5767 5766 5766 5766 5766 5766 5766 5767 5767 5768 5769 5769 5769 5770 5770 5771 5771 5772 5773 5773 5774 5774 5774 5774 5775 5775 5775 5776 5776 5777 5778 5778 5778 5778 5779 5780 5780 5781 5781 5782 5782 5783 5784 5785 5786 5786 5787 5788 5788 5789 5789 5790 5790
5755 5755 5755 5755 5754 5754 5754 5755 5756 5758 5758 5757 5757 5757 5757 5757 5757 5758 5758 5757 5757 5757 5758 5759 5759 5759 5757 5756 5757 5758 5761 5761 5759 5760 5760 5760 5760 5760 5760 5761 5761 5762 5763 5763 5763 5764 5764 5765 5765 5766 5767 5768 5768 5768 5768 5768 5769 5769 5770 5770 5771 5771 5772 5773 5773 5773 5774 5774 5775 5775 5776 5776 5777 5778 5778 5779 5780 5781 5782 5782 5783 5783 5784 5784 5785
5748 5748 5748 5748 5748 5748 5748 5748 5749 5750 5751 5750 5750 5750 5750 5751 5751 5751 5751 5751 5751 5750 5751 5753 5753 5752 5751 5751 5751 5752 5753 5753 5753 5754 5754 5754 5754 5754 5754 5755 5755 5756 5757 5757 5757 5757 5758 5759 5759 5760 5761 5762 5762 5762 5762 5763 5763 5764 5764 5765 5765 5766 5767 5767 5768 5768 5769 5769 5770 5770 5771 5771 5772 5772 5773 5774 5774 5775 5776 5776 5777 5778 5778 5779 5779
5743 5742 5742 5742 5741 5741 5741 5741 5742 5743 5743 5743 5743 5743 5743 5744 5744 5744 5744 5745 5744 5744 5745 5746 5746 5746 5746 5746 5745 5745 5746 5746 5747 5747 5748 5748 5748 5748 5749 5749 5749 5749 5750 5750 5750 5751 5751 5752 5753 5754 5755 5756 5757 5757 5757 5758 5758 5758 5759 5759 5760 5761 5761 5762 5762 5763 5763 5764 5765 5765 5765 5766 5767 5767 5768 5769 5769 5770 5771 5771 5772 5772 5773 5773 5774
5737 5737 5736 5736 5735 5735 5735 5735 5735 5735 5736 5736 5736 5736 5736 5736 5737 5737 5737 5737 5737 5737 5738 5738 5739 5739 5740 5739 5739 5739 5739 5739 5740 5741 5741 5742 5743 5742 5742 5742 5742 5742 5743 5744 5744 5744 5745 5746 5747 5748 5749 5751 5751 5751 5751 5752 5752 5753 5754 5754 5755 5755 5756 5756 5757 5757 5758 5759 5759 5760 5760 5761 5761 5762 5763 5763 5764 5765 5765 5766 5766 5767 5767 5768 5768
5731 5731 5731 5730 5730 5729 5729 5728 5728 5728 5728 5728 5728 5728 5728 5728 5729 5730 5729 5729 5729 5729 5729 5730 5732 5733 5732 5732 5732 5733 5732 5733 5733 5735 5735 5736 5736 5736 5735 5734 5735 5736 5736 5737 5738 5739 5739 5740 5741 5742 5743 5745 5745 5745 5746 5746 5747 5747 5748 5748 5749 5750 5750 5751 5751 5752 5753 5753 5754 5754 5755 5755 5756 5757 5757 5758 5758 5759 5760 5760 5761 5761 5762 5762 5763
5724 5724 5723 5723 5723 5723 5722 5722 5722 5721 5721 5721 5720 5720 5720 5720 5720 5721 5721 5721 5721 5721 5721 5722 5724 5725 5725 5724 5725 5725 5726 5726 5727 5727 5728 5728 5729 5729 5729 5728 5728 5728 5729 5730 5732 5733 5733 5733 5734 5735 5736 5738 5739 5739 5739 5740 5740 5741 5742 5743 5743 5744 5744 5745 5746 5746 5747 5748 5748 5749 5749 5750 5750 5751 5751 5752 5752 5753 5754 5754 5755 5755 5756 5756 5757
5716 5716 5716 5715 5715 5715 5715 5715 5715 5715 5714 5714 5713 5713 5712 5712 5712 5712 5713 5713 5713 5713 5713 5714 5715 5716 5717 5717 5717 5717 5718 5718 5719 5719 5720 5721 5722 5722 5722 5722 5721 5722 5722 5724 5725 5726 5726 5726 5727 5728 5730 5731 5732 5733 5733 5733 5734 5736 5736 5737 5737 5737 5738 5739 5740 5740 5741 5742 5743 5743 5744 5744 5745 5745 5746 5746 5747 5747 5748 5748 5749 5749 5750 5750 5751
5708 5708 5708 5707 5707 5707 5707 5707 5707 5707 5707 5707 5706 5705 5705 5705 5704 5704 5705 5705 5705 5705 5704 5705 5706 5707 5709 5709 5709 5709 5710 5710 5710 5711 5712 5713 5713 5714 5715 5715 5716 5717 5716 5717 5719 5719 5719 5719 5720 5721 5723 5724 5725 5726 5726 5726 5728 5729 5730 5730 5731 5731 5732 5732 5733 5734 5734 5735 5736 5737 5738 5738 5739 5739 5740 5740 5741 5741 5742 5742 5743 5744 5744 5745 5745
5700 5700 5699 5699 5698 5698 5699 5699 5699 5699 5699 5699 5699 5698 5697 5697 5696 5696 5697 5697 5697 5696 5697 5697 5697 5698 5700 5701 5701 5702 5702 5703 5703 5703 5704 5704 5705 5707 5708 5708 5710 5710 5710 5711 5713 5713 5713 5713 5713 5714 5716 5716 5717 5719 5719 5719 5721 5723 5723 5723 5724 5725 5725 5726 5727 5727 5728 5729 5729 5730 5731 5732 5733 5733 5734 5734 5735 5735 5736 5736 5737 5738 5738 5739 5739
5691 5690 5690 5690 5689 5689 5689 5690 5689 5690 5690 5691 5690 5690 5689 5689 5689 5688 5688 5688 5688 5688 5689 5688 5688 5689 5690 5691 5693 5694 5695 5695 5694 5695 5696 5696 5697 5699 5699 5700 5702 5703 5704 5704 5706 5707 5707 5707 5707 5708 5708 5709 5709 5711 5712 5713 5714 5716 5717 5717 5718 5718 5719 5720 5720 5721 5722 5722 5723 5723 5724 5725 5726 5727 5727 5728 5728 5729 5730 5730 5731 5732 5732 5733 5733
5681 5681 5681 5681 5680 5680 5680 5680 5680 5680 5681 5681 5681 5681 5680 5680 5680 5680 5680 5680 5679 5680 5680 5680 5680 5680 5680 5681 5683 5684 5686 5686 5686 5687 5687 5688 5689 5690 5691 5691 5692 5695 5697 5697 5698 5700 5700 5700 5700 5701 5701 5702 5702 5703 5704 5706 5707 5709 5710 5710 5711 5712 5712 5713 5714 5714 5715 5716 5716 5717 5718 5719 5719 5720 5720 5721 5721 5722 5723 5724 5724 5725 5726 5727 5727
5670 5670 5670 5671 5671 5670 5670 5669 5669 5669 5670 5671 5671 5671 5671 5671 5671 5671 5671 5670 5670 5671 5671 5671 5672 5671 5671 5672 5673 5675 5676 5676 5677 5678 5678 5679 5680 5681 5683 5684 5684 5685 5688 5689 5692 5693 5692 5692 5693 5693 5693 5694 5695 5696 5697 5698 5700 5701 5702 5703 5703 5704 5705 5706 5707 5707 5708 5709 5710 5711 5711 5712 5712 5713 5714 5714 5715 5715 5716 5717 5718 5718 5719 5720 5721
5660 5660 5660 5660 5660 5660 5660 5659 5659 5659 5659 5660 5660 5661 5661 5661 5661 5661 5661 5661 5661 5662 5662 5662 5662 5662 5662 5663 5664 5665 5666 5666 5668 5669 5669 5670 5671 5672 5675 5676 5675 5675 5678 5681 5684 5686 5684 5684 5685 5684 5685 5686 5687 5689 5690 5691 5692 5694 5696 5696 5696 5697 5698 5699 5700 5700 5701 5702 5703 5704 5705 5705 5706 5706 5707 5707 5708 5708 5709 5710 5711 5712 5713 5713 5714
5648 5648 5649 5649 5649 5649 5649 5649 5648 5648 5648 5648 5649 5649 5650 5650 5651 5651 5651 5650 5651 5652 5652 5652 5652 5652 5653 5654 5654 5655 5656 5656 5657 5659 5660 5661 5661 5663 5665 5667 5667 5667 5668 5671 5675 5677 5676 5675 5676 5676 5676 5678 5678 5680 5682 5683 5684 5686 5689 5689 5689 5690 5691 5692 5693 5693 5694 5695 5696 5697 5698 5698 5699 5699 5699 5700 5700 5701 5702 5703 5704 5705 5706 5707 5707
5636 5636 5636 5636 5636 5637 5637 5637 5637 5637 5637 5637 5637 5637 5638 5638 5639 5640 5640 5640 5641 5642 5641 5642 5642 5642 5643 5644 5644 5646 5646 5645 5647 5649 5650 5651 5651 5652 5654 5656 5657 5658 5659 5660 5663 5667 5667 5667 5668 5667 5667 5668 5670 5671 5673 5674 5676 5678 5681 5682 5681 5682 5684 5685 5685 5686 5687 5688 5689 5690 5691 5691 5691 5692 5692 5692 5693 5693 5694 5695 5696 5697 5698 5699 5700
5626 5625 5625 5624 5624 5624 5624 5624 5624 5624 5624 5625 5625 5625 5626 5626 5626 5627 5628 5628 5630 5631 5631 5631 5632 5631 5632 5634 5634 5635 5635 5634 5637 5639 5639 5640 5641 5642 5643 5645 5646 5648 5650 5650 5653 5657 5658 5658 5659 5658 5658 5659 5661 5662 5663 5665 5667 5669 5672 5673 5673 5674 5676 5677 5678 5679 5680 5681 5682 5683 5683 5684 5684 5684 5685 5685 5685 5686 5686 5687 5688 5689 5689 5690 5691
5615 5615 5615 5614 5614 5613 5613 5612 5612 5612 5612 5612 5612 5613 5613 5613 5613 5614 5615 5616 5618 5619 5620 5621 5621 5621 5622 5623 5624 5625 5624 5624 5627 5629 5629 5630 5630 5631 5632 5633 5635 5638 5639 5641 5644 5646 5648 5649 5650 5650 5650 5650 5652 5653 5654 5656 5658 5660 5662 5664 5665 5666 5667 5669 5670 5671 5672 5673 5674 5675 5676 5676 5677 5677 5678 5678 5678 5679 5679 5680 5681 5681 5682 5683 5683
5603 5603 5603 5604 5604 5604 5603 5603 5602 5601 5601 5601 5601 5601 5601 5601 5601 5601 5602 5603 5605 5606 5608 5609 5610 5610 5611 5613 5614 5613 5612 5614 5617 5619 5619 5619 5619 5620 5621 5622 5624 5627 5628 5630 5633 5635 5637 5639 5640 5640 5640 5641 5643 5644 5645 5647 5648 5651 5654 5655 5657 5658 5659 5661 5662 5662 5663 5664 5665 5667 5668 5669 5669 5669 5670 5670 5671 5671 5672 5673 5674 5674 5675 5675 5676
5591 5591 5590 5591 5591 5591 5591 5592 5592 5591 5590 5590 5589 5590 5590 5590 5589 5589 5589 5590 5592 5593 5595 5596 5597 5597 5599 5602 5603 5602 5601 5603 5607 5608 5608 5608 5608 5609 5611 5612 5613 5616 5617 5618 5621 5624 5626 5629 5630 5631 5631 5632 5633 5634 5635 5637 5639 5642 5645 5647 5649 5650 5650 5652 5653 5654 5655 5656 5657 5658 5660 5661 5661 5661 5662 5662 5663 5663 5664 5665 5666 5667 5668 5668 5669
5579 5579 5578 5578 5578 5578 5578 5578 5578 5579 5579 5579 5578 5578 5578 5578 5578 5578 5578 5578 5579 5580 5582 5583 5584 5585 5586 5589 5591 5590 5590 5593 5596 5597 5596 5597 5597 5599 5601 5602 5603 5605 5606 5606 5609 5612 5615 5618 5621 5622 5622 5622 5623 5624 5625 5627 5630 5633 5636 5638 5640 5641 5641 5643 5645 5645 5646 5647 5648 5649 5651 5652 5652 5652 5653 5654 5654 5655 5656 5657 5658 5659 5660 5660 5661
5566 5566 5566 5566 5566 5566 5566 5565 5565 5565 5566 5567 5567 5566 5566 5566 5566 5567 5567 5567 5568 5568 5569 5571 5572 5573 5574 5576 5577 5577 5578 5582 5586 5585 5584 5585 5587 5588 5590 5592 5593 5593 5593 5594 5597 5600 5603 5607 5611 5612 5612 5612 5614 5615 5616 5618 5621 5624 5627 5629 5631 5632 5632 5634 5636 5636 5637 5638 5639 5640 5642 5643 5643 5644 5644 5645 5646 5647 5648 5649 5650 5651 5652 5653 5654
5552 5552 5552 5552 5553 5553 5553 5554 5554 5553 5553 5554 5554 5554 5554 5554 5554 5555 5555 5556 5556 5557 5558 5559 5560 5561 5563 5564 5565 5565 5567 5571 5573 5573 5572 5574 5575 5577 5580 5582 5582 5581 5581 5583 5585 5587 5590 5595 5599 5600 5602 5603 5604 5606 5607 5609 5611 5615 5618 5620 5621 5623 5624 5625 5626 5626 5627 5629 5630 5631 5633 5634 5634 5635 5635 5636 5637 5638 5639 5640 5642 5643 5644 5645 5646
5538 5538 5538 5538 5538 5539 5539 5539 5539 5539 5540 5541 5541 5541 5541 5541 5542 5542 5543 5543 5544 5545 5546 5547 5548 5549 5551 5552 5553 5554 5556 5558 5560 5560 5561 5562 5564 5566 5569 5570 5569 5568 5570 5572 5573 5574 5578 5583 5586 5589 5592 5593 5594 5596 5598 5600 5602 5606 5609 5610 5612 5614 5615 5615 5615 5616 5619 5620 5621 5622 5624 5625 5626 5626 5627 5627 5628 5630 5631 5632 5634 5635 5636 5637 5638
5524 5524 5524 5524 5524 5524 5524 5525 5525 5524 5525 5525 5526 5526 5526 5527 5528 5528 5530 5530 5531 5532 5534 5535 5536 5537 5538 5540 5541 5543 5544 5546 5548 5548 5548 5550 5552 5554 5557 5558 5556 5557 5559 5561 5562 5563 5566 5571 5574 5578 5580 5582 5584 5587 5589 5591 5594 5599 5601 5601 5601 5603 5604 5604 5605 5608 5610 5612 5612 5614 5615 5616 5617 5617 5618 5619 5620 5621 5623 5624 5625 5627 5628 5629 5629
5509 5508 5509 5509 5509 5509 5509 5509 5510 5510 5510 5511 5511 5510 5510 5511 5512 5513 5515 5516 5517 5518 5519 5522 5523 5525 5526 5527 5528 5530 5532 5534 5536 5536 5537 5538 5539 5542 5545 5544 5543 5545 5547 5549 5550 5552 5555 5559 5563 5567 5569 5571 5575 5578 5581 5585 5589 5591 5590 5589 5591 5593 5594 5595 5597 5599 5602 5603 5604 5605 5606 5607 5608 5608 5610 5611 5612 5613 5614 5615 5617 5619 5620 5620 5621
5493 5492 5493 5493 5493 5493 5494 5494 5494 5494 5495 5496 5496 5494 5494 5495 5495 5497 5499 5501 5502 5503 5505 5507 5509 5511 5513 5514 5516 5517 5519 5522 5524 5525 5526 5527 5528 5531 5532 5530 5530 5533 5535 5537 5539 5542 5544 5547 5551 5555 5558 5562 5567 5570 5574 5578 5579 5578 5577 5579 5582 5583 5583 5586 5589 5591 5593 5594 5595 5596 5597 5597 5599 5600 5601 5602 5603 5604 5606 5607 5608 5610 5612 5612 5613
5478 5477 5477 5478 5477 5477 5477 5478 5479 5479 5479 5480 5480 5479 5479 5479 5479 5480 5482 5485 5487 5488 5490 5493 5495 5497 5498 5500 5502 5504 5506 5509 5511 5512 5514 5516 5518 5519 5519 5518 5518 5521 5524 5525 5528 5531 5532 5536 5540 5544 5547 5553 5558 5561 5564 5567 5567 5567 5568 5569 5570 5571 5574 5578 5580 5582 5584 5584 5585 5587 5588 5588 5590 5591 5592 5593 5594 5596 5597 5598 5600 5602 5603 5604 5605
5460 5461 5462 5462 5462 5461 5460 5460 5462 5463 5464 5465 5465 5464 5463 5463 5462 5462 5464 5468 5471 5473 5475 5477 5480 5482 5484 5485 5488 5490 5493 5496 5497 5499 5501 5504 5506 5506 5506 5506 5507 5510 5512 5515 5518 5519 5521 5524 5528 5531 5537 5544 5547 5550 5554 5557 5557 5557 5557 5558 5560 5562 5566 5569 5571 5573 5574 5573 5575 5578 5580 5580 5581 5582 5583 5584 5585 5587 5588 5589 5591 5593 5594 5595 5596
5441 5442 5444 5444 5445 5445 5444 5443 5444 5446 5447 5450 5450 5448 5448 5448 5447 5445 5446 5449 5453 5456 5459 5462 5464 5467 5469 5471 5473 5476 5479 5482 5483 5485 5488 5490 5492 5493 5494 5495 5497 5500 5502 5504 5506 5508 5510 5513 5516 5520 5528 5533 5534 5539 5544 5546 5546 5546 5546 5548 5551 5553 5556 5560 5562 5563 5563 5564 5566 5569 5571 5571 5572 5573 5574 5575 5576 5578 5579 5580 5582 5584 5585 5586 5587
5423 5423 5424 5425 5426 5426 5426 5425 5426 5427 5430 5433 5433 5431 5431 5431 5431 5429 5428 5430 5434 5438 5442 5445 5448 5451 5454 5455 5458 5462 5465 5466 5468 5472 5474 5475 5476 5478 5480 5483 5486 5490 5491 5492 5495 5498 5500 5502 5505 5511 5518 5518 5520 5527 5531 5532 5535 5537 5537 5539 5541 5542 5545 5549 5551 5552 5554 5555 5557 5560 5562 5563 5563 5564 5565 5566 5567 5569 5570 5571 5573 5574 5576 5577 5578
5406 5406 5405 5405 5406 5406 5407 5406 5405 5407 5412 5415 5414 5412 5412 5413 5413 5411 5410 5412 5416 5420 5423 5427 5430 5434 5437 5439 5442 5447 5450 5452 5454 5457 5458 5459 5461 5463 5467 5470 5474 5478 5480 5482 5486 5488 5490 5492 5495 5501 5504 5504 5507 5514 5518 5521 5525 5527 5527 5528 5529 5530 5533 5537 5541 5544 5546 5548 5549 5551 5554 5555 5554 5555 5556 5556 5556 5559 5560 5561 5563 5564 5566 5567 5568
5390 5390 5389 5388 5387 5387 5388 5387 5385 5386 5391 5395 5394 5392 5392 5393 5393 5393 5392 5392 5395 5399 5405 5409 5412 5415 5419 5422 5426 5431 5435 5437 5440 5442 5441 5442 5444 5449 5454 5458 5461 5464 5467 5473 5477 5477 5478 5481 5485 5490 5492 5492 5496 5501 5506 5510 5514 5515 5515 5515 5517 5520 5523 5527 5531 5534 5537 5539 5540 5542 5545 5546 5546 5546 5546 5546 5547 5548 5549 5550 5552 5554 5556 5557 5557
5374 5374 5373 5372 5371 5370 5369 5369 5367 5365 5369 5374 5375 5373 5372 5372 5372 5372 5372 5374 5376 5378 5384 5390 5393 5396 5400 5405 5409 5413 5418 5422 5426 5427 5426 5425 5428 5434 5439 5444 5446 5449 5455 5462 5464 5464 5467 5470 5474 5478 5481 5482 5484 5488 5493 5497 5501 5502 5502 5504 5508 5511 5512 5515 5520 5524 5527 5529 5531 5532 5534 5536 5537 5536 5536 5538 5539 5538 5539 5541 5543 5544 5545 5546 5546
5356 5357 5355 5353 5354 5354 5352 5351 5350 5347 5348 5353 5356 5353 5352 5352 5350 5349 5350 5352 5355 5359 5364 5369 5373 5377 5381 5386 5391 5394 5400 5406 5410 5411 5410 5410 5413 5418 5424 5428 5431 5436 5445 5451 5450 5449 5453 5457 5461 5466 5469 5470 5473 5476 5480 5485 5488 5490 5492 5496 5500 5501 5501 5504 5509 5512 5514 5517 5521 5523 5523 5526 5528 5527 5526 5529 5530 5530 5529 5531 5533 5534 5534 5535 5535
5339 5339 5338 5336 5335 5337 5336 5334 5334 5331 5331 5334 5337 5335 5333 5333 5331 5328 5328 5328 5331 5338 5346 5350 5352 5356 5360 5367 5372 5376 5381 5389 5392 5393 5394 5395 5397 5403 5408 5411 5415 5425 5436 5437 5432 5433 5438 5443 5448 5453 5455 5458 5461 5464 5468 5473 5476 5479 5484 5487 5488 5489 5492 5495 5497 5498 5502 5507 5512 5513 5511 5514 5518 5517 5516 5518 5520 5520 5520 5521 5523 5524 5524 5524 5525